SL-16 R/B (22285 NORAD) Tracking and Keplerian Element Data

This shows tracking and keplerian element data for the satellite.

Feedback or suggestion? Click here.




ElementValue
Catalog22285
NameSL-16 R/B
Epoch Orbit60216
Epoch Day12.98259987
Epoch Year2024
RAAN215.4999
Inclination71.0198
Eccentricity0.0002281
Argument of Perigee41.876
Mean Anonmoly318.2537
Mean Motion14.15216986
Decay Rate-2.12E-06
L11 22285U 92093B 24012.98259987 -.00000212 00000+0 -84642-4 0 9992
L22 22285 71.0198 215.4999 0002281 41.8760 318.2537 14.15216986602162



Live tracking and technical data element details for SL-16 R/B (NORAD 22285). SL-16 R/B can be tracked NOW for your location showing map with azimuth and elevation plus other details from your city location.







IsCatalogInMostPopularTable: catalog: 22285, numindb: 315
Update: records affected: 1



GetName: 22285 SL-16 R/B

Hit Count: updated at: Mon, 15 Apr 2024 00:09:33 GMT